DW7628 Weather Reports


Display with metric or nautical units.
time (UTC)temp
F
wind
direction
speed
MPH
gust
MPH
rain 1hr
in
rain 24hr
in
rain mn
in
humidity
%
barometer
mb
20260901030304 72 209 0.0 0.0 0.00 0.00 0.00 74 1011.6
20260901025804 72 181 0.0 0.0 0.00 0.00 0.00 73 1011.6
20260901025306 72 111 0.0 0.0 0.00 0.00 0.00 73 1011.6
20260901024804 72 148 0.0 0.0 0.00 0.00 0.00 73 1011.5
20260901024304 72 241 0.0 0.0 0.00 0.00 0.00 72 1011.5
20260901023804 72 109 0.0 0.0 0.00 0.00 0.00 72 1011.5
20260901023304 72 10 0.0 0.0 0.00 0.00 0.00 71 1011.6
20260901022306 72 14 0.0 0.0 0.00 0.00 0.00 71 1011.8
20260901021804 73 22 0.0 0.0 0.00 0.00 0.00 70 1011.9
20260901021304 72 44 0.0 0.0 0.00 0.00 0.00 71 1011.8
20260901020804 72 136 0.0 0.0 0.00 0.00 0.00 70 1011.7
20260901020304 72 354 0.0 0.0 0.00 0.00 0.00 72 1011.8
20260901015804 72 49 0.0 0.0 0.00 0.00 0.00 71 1011.8
20260901015305 73 28 0.0 0.0 0.00 0.00 0.00 71 1011.7
20260901014803 73 9 0.0 0.0 0.00 0.00 0.00 72 1011.8
20260901014304 73 51 0.0 0.0 0.00 0.00 0.00 72 1011.8
20260901013804 73 41 0.0 0.0 0.00 0.00 0.00 72 1011.6
20260901013304 72 19 0.0 0.0 0.00 0.00 0.00 74 1011.6
20260901012804 72 35 0.0 0.0 0.00 0.00 0.00 76 1011.8
20260901012306 72 28 0.0 0.0 0.00 0.00 0.00 77 1011.9
20260901011304 72 24 0.0 0.0 0.00 0.00 0.00 78 1012.1
20260901010804 72 357 0.0 0.0 0.00 0.00 0.00 78 1012.2
20260901010304 72 24 0.0 0.0 0.00 0.00 0.00 78 1012.2
20260901005806 72 22 0.0 0.0 0.00 0.00 0.00 78 1012.2
20260901005307 72 19 0.0 0.0 0.00 0.00 0.00 78 1012.1
20260901004806 72 39 0.0 0.0 0.00 0.00 0.00 77 1012.2
20260901003306 72 32 0.0 0.0 0.00 0.00 0.00 77 1012.2
20260901002807 72 26 0.0 0.0 0.00 0.00 0.00 77 1012.3
20260901002306 72 68 0.0 0.0 0.00 0.00 0.00 77 1012.4
20260901001806 72 287 0.0 0.0 0.00 0.00 0.00 76 1012.4
20260901001306 73 27 0.0 0.0 0.00 0.00 0.00 76 1012.4
20260901000806 73 66 0.0 0.0 0.00 0.00 0.00 75 1012.4
20260901000306 73 29 0.0 0.0 0.00 0.00 0.00 75 1012.3
20260831235806 73 31 0.0 0.0 0.00 0.00 0.00 75 1012.3
20260831234806 73 8 0.0 0.0 0.00 0.00 0.00 74 1012.4
20260831234306 73 37 0.0 0.0 0.00 0.00 0.00 75 1012.5
20260831233806 73 47 0.0 0.0 0.00 0.00 0.00 75 1012.5
20260831232807 73 9 0.0 0.0 0.00 0.00 0.00 74 1012.7
20260831232306 74 22 0.0 0.0 0.00 0.00 0.00 74 1012.6
20260831231806 74 12 0.0 0.0 0.00 0.00 0.00 73 1012.7
20260831230806 74 1 0.0 0.0 0.00 0.00 0.00 70 1012.7
20260831230306 74 10 0.0 0.0 0.00 0.00 0.00 70 1012.7
20260831225810 74 27 0.0 0.0 0.00 0.00 0.00 69 1012.8
20260831225307 75 142 0.0 0.0 0.00 0.00 0.00 68 1012.9
20260831224807 75 19 0.0 0.0 0.00 0.00 0.00 67 1012.9
20260831224306 75 58 0.0 0.0 0.00 0.00 0.00 67 1012.9
20260831223805 74 341 0.0 0.0 0.00 0.00 0.00 66 1012.9
20260831223306 74 225 0.0 0.0 0.00 0.00 0.00 67 1012.9
20260831222806 74 225 0.0 0.0 0.00 0.00 0.00 68 1012.9
20260831222307 74 220 0.0 0.0 0.00 0.00 0.00 68 1012.9
20260831221806 75 118 0.0 0.0 0.00 0.00 0.00 68 1012.5
20260831221306 75 65 0.0 0.0 0.00 0.00 0.00 68 1012.3
20260831220306 75 58 0.0 0.0 0.00 0.00 0.00 67 1012.2
20260831215807 75 70 0.0 0.0 0.00 0.00 0.00 67 1012.3
20260831215306 75 22 0.0 0.0 0.00 0.00 0.00 67 1012.3
20260831214307 75 210 0.0 0.0 0.00 0.00 0.00 69 1012.2
20260831212806 76 171 0.0 0.0 0.00 0.00 0.00 69 1012.2
20260831212306 76 173 0.0 0.0 0.00 0.00 0.00 69 1012.2
20260831211806 76 186 0.0 0.0 0.00 0.00 0.00 68 1012.2
20260831211305 76 191 0.0 0.0 0.00 0.00 0.00 68 1012.2
20260831210806 76 220 0.0 0.0 0.00 0.00 0.00 67 1012.2
20260831210306 76 221 0.0 0.0 0.00 0.00 0.00 68 1012.3
20260831205307 77 217 0.0 0.0 0.00 0.00 0.00 67 1012.2
20260831204805 77 228 0.0 0.0 0.00 0.00 0.00 66 1012.1
20260831203805 77 201 0.0 0.0 0.00 0.00 0.00 65 1012.2
20260831203306 77 225 0.0 0.0 0.00 0.00 0.00 66 1012.1
20260831202806 78 359 0.0 0.0 0.00 0.00 0.00 66 1012.1
20260831202306 78 34 0.0 0.0 0.00 0.00 0.00 66 1012.1
20260831201806 78 155 0.0 0.0 0.00 0.00 0.00 65 1012.1
20260831201306 78 215 0.0 0.0 0.00 0.00 0.00 65 1012.0
20260831200805 78 109 0.0 0.0 0.00 0.00 0.00 65 1012.0
20260831200306 78 13 0.0 0.0 0.00 0.00 0.00 65 1012.0
20260831195806 78 204 0.0 0.0 0.00 0.00 0.00 65 1012.1
20260831195306 79 239 0.0 0.0 0.00 0.00 0.00 66 1012.1
20260831194806 79 118 0.0 0.0 0.00 0.00 0.00 65 1012.0
20260831194306 79 215 0.0 0.0 0.00 0.00 0.00 65 1011.9
20260831193805 79 8 0.0 0.0 0.00 0.00 0.00 63 1012.0
20260831192805 79 81 0.0 0.0 0.00 0.00 0.00 63 1011.7
20260831192307 79 76 0.0 0.0 0.00 0.00 0.00 64 1011.7
20260831191805 79 3 0.0 0.0 0.00 0.00 0.00 65 1011.7
20260831191306 80 22 0.0 0.0 0.00 0.00 0.00 64 1011.7
20260831190806 80 16 0.0 0.0 0.00 0.00 0.00 62 1011.6
20260831190306 80 94 0.0 0.0 0.00 0.00 0.00 62 1011.4
20260831185807 80 14 0.0 0.0 0.00 0.00 0.00 61 1011.4
20260831185306 81 236 0.0 0.0 0.00 0.00 0.00 61 1011.3
20260831184806 81 102 0.0 0.0 0.00 0.00 0.00 59 1011.2
20260831184305 81 175 0.0 0.0 0.00 0.00 0.00 57 1011.1
20260831183806 82 217 0.0 0.0 0.00 0.00 0.00 59 1011.0
20260831183305 82 233 0.0 0.0 0.00 0.00 0.00 58 1011.0
20260831182806 82 133 0.0 0.0 0.00 0.00 0.00 57 1010.9
20260831182306 82 198 0.0 0.0 0.00 0.00 0.00 56 1011.0
20260831181307 83 24 0.0 0.0 0.00 0.00 0.00 56 1010.9
20260831180805 83 10 0.0 0.0 0.00 0.00 0.00 54 1010.9
20260831175805 84 208 0.0 0.0 0.00 0.00 0.00 56 1010.8
20260831175306 84 193 0.0 0.0 0.00 0.00 0.00 55 1010.8
20260831174805 85 129 0.0 0.0 0.00 0.00 0.00 54 1010.8
20260831174305 85 44 0.0 0.0 0.00 0.00 0.00 52 1010.7
20260831173805 86 9 0.0 0.0 0.00 0.00 0.00 51 1010.6
20260831173305 86 83 0.0 0.0 0.00 0.00 0.00 49 1010.8
20260831172806 87 24 0.0 0.0 0.00 0.00 0.00 48 1010.7
20260831171805 87 34 0.0 0.0 0.00 0.00 0.00 46 1010.7
20260831171305 88 13 0.0 0.0 0.00 0.00 0.00 45 1010.7
20260831170806 88 126 0.0 0.0 0.00 0.00 0.00 45 1010.7
20260831165306 89 311 0.0 0.0 0.00 0.00 0.00 44 1010.8
20260831164806 89 46 0.0 0.0 0.00 0.00 0.00 44 1010.7
20260831163306 90 279 0.0 0.0 0.00 0.00 0.00 44 1010.6
20260831162806 90 39 0.0 0.0 0.00 0.00 0.00 44 1010.7
20260831162306 90 50 0.0 0.0 0.00 0.00 0.00 44 1010.6
20260831161807 91 48 0.0 0.0 0.00 0.00 0.00 43 1010.6
20260831161305 91 85 0.0 0.0 0.00 0.00 0.00 42 1010.6
20260831160305 92 45 0.0 0.0 0.00 0.00 0.00 42 1010.5
20260831155806 92 89 0.0 0.0 0.00 0.00 0.00 42 1010.4
20260831155306 92 126 0.0 0.0 0.00 0.00 0.00 41 1010.4
20260831154805 92 42 0.0 0.0 0.00 0.00 0.00 41 1010.4
20260831153806 93 42 0.0 0.0 0.00 0.00 0.00 40 1010.4
20260831152806 94 23 0.0 0.0 0.00 0.00 0.00 39 1010.3
20260831152306 94 41 0.0 0.0 0.00 0.00 0.00 38 1010.3
20260831151806 95 47 0.0 0.0 0.00 0.00 0.00 38 1010.3
20260831151305 95 111 0.0 0.0 0.00 0.00 0.00 38 1010.3
20260831150305 95 40 0.0 0.0 0.00 0.00 0.00 37 1010.2
20260831145805 96 21 0.0 0.0 0.00 0.00 0.00 36 1010.3
20260831145306 96 84 0.0 0.0 0.00 0.00 0.00 36 1010.3
20260831144805 97 149 0.0 0.0 0.00 0.00 0.00 35 1010.2
20260831144306 98 32 0.0 0.0 0.00 0.00 0.00 34 1010.2
20260831143805 98 31 0.0 0.0 0.00 0.00 0.00 34 1010.2
20260831143306 98 22 0.0 0.0 0.00 0.00 0.00 34 1010.2
20260831142805 98 22 0.0 0.0 0.00 0.00 0.00 34 1010.3
20260831142306 98 30 0.0 0.0 0.00 0.00 0.00 33 1010.3
20260831141305 99 36 0.0 0.0 0.00 0.00 0.00 32 1010.3
20260831140305 99 28 0.0 0.0 0.00 0.00 0.00 31 1010.3
20260831135805 99 134 0.0 0.0 0.00 0.00 0.00 30 1010.3
20260831135306 100 160 0.0 0.0 0.00 0.00 0.00 29 1010.4
20260831134805 100 245 0.0 0.0 0.00 0.00 0.00 29 1010.4
20260831134305 100 196 0.0 0.0 0.00 0.00 0.00 29 1010.5
20260831133805 100 281 0.0 0.0 0.00 0.00 0.00 28 1010.4
20260831133305 100 74 0.0 0.0 0.00 0.00 0.00 29 1010.4
20260831132805 100 187 0.0 0.0 0.00 0.00 0.00 28 1010.5
20260831132307 100 158 0.0 0.0 0.00 0.00 0.00 28 1010.5
20260831131805 100 224 0.0 0.0 0.00 0.00 0.00 28 1010.5
20260831131305 100 172 0.0 0.0 0.00 0.00 0.00 27 1010.5
20260831130805 100 303 0.0 0.0 0.00 0.00 0.00 28 1010.6
20260831125806 100 161 0.0 0.0 0.00 0.00 0.00 28 1010.6
20260831124805 99 27 0.0 0.0 0.00 0.00 0.00 27 1010.7
20260831124305 99 195 0.0 0.0 0.00 0.00 0.00 27 1010.7
20260831123806 99 260 0.0 0.0 0.00 0.00 0.00 28 1010.7
20260831123305 98 116 0.0 0.0 0.00 0.00 0.00 28 1010.8
20260831122805 99 281 0.0 0.0 0.00 0.00 0.00 28 1011.0
20260831122306 99 277 0.0 0.0 0.00 0.00 0.00 28 1011.0
20260831121805 99 329 0.0 0.0 0.00 0.00 0.00 28 1010.9
20260831121304 99 217 0.0 0.0 0.00 0.00 0.00 29 1011.1
20260831120805 98 171 0.0 0.0 0.00 0.00 0.00 29 1011.1
20260831120305 99 273 0.0 0.0 0.00 0.00 0.00 29 1011.2
20260831115805 99 168 0.0 0.0 0.00 0.00 0.00 28 1011.2
20260831114805 98 187 0.0 0.0 0.00 0.00 0.00 29 1011.3
20260831114304 98 51 0.0 0.0 0.00 0.00 0.00 29 1011.3
20260831113805 97 236 0.0 0.0 0.00 0.00 0.00 29 1011.4
20260831113305 98 25 0.0 0.0 0.00 0.00 0.00 28 1011.5
20260831112805 97 197 0.0 0.0 0.00 0.00 0.00 29 1011.5
20260831112307 97 12 0.0 0.0 0.00 0.00 0.00 30 1011.6
20260831111805 97 230 0.0 0.0 0.00 0.00 0.00 30 1011.7
20260831111305 97 289 0.0 0.0 0.00 0.00 0.00 30 1011.8
20260831110805 97 327 0.0 0.0 0.00 0.00 0.00 29 1011.8
20260831110306 97 147 0.0 0.0 0.00 0.00 0.00 30 1011.9
20260831105804 97 126 0.0 0.0 0.00 0.00 0.00 30 1011.9
20260831105306 97 62 0.0 0.0 0.00 0.00 0.00 29 1012.0
20260831104805 97 212 0.0 0.0 0.00 0.00 0.00 29 1012.0
20260831103806 97 267 0.0 0.0 0.00 0.00 0.00 28 1012.2
20260831103305 97 35 0.0 0.0 0.00 0.00 0.00 28 1012.2
20260831102306 97 85 0.0 0.0 0.00 0.00 0.00 28 1012.2
20260831101805 96 4 0.0 0.0 0.00 0.00 0.00 28 1012.2
20260831101305 96 236 0.0 0.0 0.00 0.00 0.00 29 1012.3
20260831100305 95 207 0.0 0.0 0.00 0.00 0.00 30 1012.3
20260831095306 94 286 0.0 0.0 0.00 0.00 0.00 34 1012.4
20260831094804 94 228 0.0 0.0 0.00 0.00 0.00 36 1012.4
20260831093806 93 42 0.0 0.0 0.00 0.00 0.00 31 1012.3
20260831093305 93 27 0.0 0.0 0.00 0.00 0.00 32 1012.4
20260831092806 92 159 0.0 0.0 0.00 0.00 0.00 37 1012.4
20260831092306 92 274 0.0 0.0 0.00 0.00 0.00 37 1012.4
20260831091805 92 153 0.0 0.0 0.00 0.00 0.00 37 1012.5
20260831090805 91 130 0.0 0.0 0.00 0.00 0.00 40 1012.4
20260831090304 91 332 0.0 0.0 0.00 0.00 0.00 40 1012.4
20260831085804 91 169 0.0 0.0 0.00 0.00 0.00 40 1012.3
20260831085306 91 162 0.0 0.0 0.00 0.00 0.00 42 1012.3
20260831084804 90 140 0.0 0.0 0.00 0.00 0.00 42 1012.3
20260831083805 89 80 0.0 0.0 0.00 0.00 0.00 45 1012.4
20260831083305 88 171 0.0 0.0 0.00 0.00 0.00 45 1012.4
20260831082307 89 137 0.0 0.0 0.00 0.00 0.00 45 1012.4
20260831081304 88 78 0.0 0.0 0.00 0.00 0.00 46 1012.3
20260831080804 88 85 0.0 0.0 0.00 0.00 0.00 46 1012.3
20260831075306 88 168 0.0 0.0 0.00 0.00 0.00 43 1012.2
20260831074305 87 346 0.0 0.0 0.00 0.00 0.00 45 1012.2
20260831073805 86 179 0.0 0.0 0.00 0.00 0.00 47 1012.2
20260831073305 86 143 0.0 0.0 0.00 0.00 0.00 47 1012.2
20260831072807 85 99 0.0 0.0 0.00 0.00 0.00 47 1012.1
20260831072306 86 45 0.0 0.0 0.00 0.00 0.00 47 1012.2
20260831071805 86 45 0.0 0.0 0.00 0.00 0.00 46 1012.2
20260831071306 86 10 0.0 0.0 0.00 0.00 0.00 45 1012.1
20260831070805 85 15 0.0 0.0 0.00 0.00 0.00 45 1012.1
20260831065804 85 108 0.0 0.0 0.00 0.00 0.00 45 1012.1
20260831065306 85 13 0.0 0.0 0.00 0.00 0.00 44 1012.0
20260831064806 85 23 0.0 0.0 0.00 0.00 0.00 43 1012.0
20260831064304 84 198 0.0 0.0 0.00 0.00 0.00 46 1012.0
20260831063304 83 167 0.0 0.0 0.00 0.00 0.00 50 1012.0
20260831062804 82 207 0.0 0.0 0.00 0.00 0.00 50 1012.0
20260831062306 82 192 0.0 0.0 0.00 0.00 0.00 50 1011.9
20260831061804 82 143 0.0 0.0 0.00 0.00 0.00 50 1011.9
20260831061305 81 225 0.0 0.0 0.00 0.00 0.00 53 1011.8
20260831060804 80 225 0.0 0.0 0.00 0.00 0.00 54 1011.8
20260831060305 80 221 0.0 0.0 0.00 0.00 0.00 55 1011.7
20260831055804 79 155 0.0 0.0 0.00 0.00 0.00 55 1011.7
20260831055306 79 186 0.0 0.0 0.00 0.00 0.00 56 1011.6
20260831054804 79 186 0.0 0.0 0.00 0.00 0.00 56 1011.4
20260831053804 79 63 0.0 0.0 0.00 0.00 0.00 54 1011.4
20260831053304 79 62 0.0 0.0 0.00 0.00 0.00 52 1011.3
20260831052805 78 56 0.0 0.0 0.00 0.00 0.00 52 1011.2
20260831052307 78 53 0.0 0.0 0.00 0.00 0.00 53 1011.1
20260831051805 78 53 0.0 0.0 0.00 0.00 0.00 53 1011.1
20260831051304 78 56 0.0 0.0 0.00 0.00 0.00 54 1011.0
20260831050805 78 340 0.0 0.0 0.00 0.00 0.00 54 1011.1
20260831050304 78 335 0.0 0.0 0.00 0.00 0.00 55 1011.1
20260831045804 78 350 0.0 0.0 0.00 0.00 0.00 54 1011.0
20260831045306 78 352 0.0 0.0 0.00 0.00 0.00 54 1010.9
20260831044804 78 329 0.0 0.0 0.00 0.00 0.00 54 1010.9
20260831044305 78 332 0.0 0.0 0.00 0.00 0.00 54 1011.0
20260831043804 78 1 0.0 0.0 0.00 0.00 0.00 54 1010.9
20260831043304 78 7 0.0 0.0 0.00 0.00 0.00 53 1010.8
20260831042805 78 15 0.0 0.0 0.00 0.00 0.00 53 1010.7
20260831042307 79 59 0.0 0.0 0.00 0.00 0.00 53 1010.6
20260831041804 78 4 0.0 0.0 0.00 0.00 0.00 53 1010.6
20260831040805 79 9 0.0 0.0 0.00 0.00 0.00 52 1010.4
20260831040304 79 331 0.0 0.0 0.00 0.00 0.00 52 1010.3
20260831035306 78 14 0.0 0.0 0.00 0.00 0.00 52 1010.4
20260831034804 78 24 0.0 0.0 0.00 0.00 0.00 55 1010.4
20260831034304 78 77 0.0 0.0 0.00 0.00 0.00 57 1010.3
20260831033304 78 88 0.0 0.0 0.00 0.00 0.00 58 1010.3
20260831032306 78 63 0.0 0.0 0.00 0.00 0.00 58 1010.3
20260831031804 77 57 0.0 0.0 0.00 0.00 0.00 58 1010.4
20260831031304 77 11 0.0 0.0 0.00 0.00 0.00 59 1010.4